Welcome to the New NWS' Forecast!
Most changes are behind the scenes, but click here for differences you might notice.

Regional Weather Roundup (RWR)

Issued by National Weather Service (NWS)

                            
000
ASUS43 KLMK 230710
RWRKY 
KENTUCKY REGIONAL WEATHER ROUNDUP
NATIONAL WEATHER SERVICE LOUISVILLE KY
300 AM EDT TUE OCT 23 2018

NOTE "FAIR" INDICATES FEW OR NO CLOUDS BELOW 12,000 FEET
WITH NO SIGNIFICANT WEATHER AND/OR OBSTRUCTIONS TO VISIBILITY.

KYZ001>023-026-027-061>063-070>075-230800-
WESTERN AND SOUTH CENTRAL KENTUCKY
  
CITY           SKY/WX    TMP DP  RH WIND       PRES   REMARKS
PADUCAH        FAIR      42  38  85 CALM      30.20S                  
HENDERSON      FAIR      42  37  82 SW3       30.20S                  
OWENSBORO      FAIR      42  38  85 S3        30.20F                  
HOPKINSVILLE   FAIR      44  39  83 CALM      30.21S                  
BOWLING GREEN  FAIR      41  36  82 CALM      30.22S                  
GLASGOW        FAIR      39  37  93 CALM      30.21S                  
$$

KYZ024-025-028>034-038-045-046-053-230800-
NORTH CENTRAL KENTUCKY
  
CITY           SKY/WX    TMP DP  RH WIND       PRES   REMARKS
LOUISVILLE/SDF FAIR      51  36  56 W5        30.18F                  
LOUISVILLE/LOU FAIR      47  40  76 CALM      30.18F                  
FORT KNOX      FAIR      45  36  72 SW5       30.19F                  
$$

KYZ035>037-039>044-047>052-055>060-089>105-230800-
NORTHEAST KENTUCKY
  
CITY           SKY/WX    TMP DP  RH WIND       PRES   REMARKS
LEXINGTON      FAIR      45  35  68 SW8       30.18F                  
COVINGTON      FAIR      47  36  65 SW9       30.14S                  
FRANKFORT      FAIR      45  36  70 SW3       30.17F                  
$$

KYZ054-064>069-076>088-106>120-230800-
SOUTHEAST KENTUCKY
  
CITY           SKY/WX    TMP DP  RH WIND       PRES   REMARKS
JACKSON        FAIR      46  38  73 CALM      30.21R                  
LONDON         FAIR      41  39  93 CALM      30.21S                  
SOMERSET       FAIR      39  39 100 CALM      30.23S                  
MIDDLESBORO    FAIR      39  39 100 CALM      30.26R                  
MONTICELLO     FAIR      37  36  96 VRB6      30.24S WCI  32          
$$